Regional Weather Roundup
Issued by NWS Upton, NY

Current Version | Previous Version | Text Only | Print | Product List | Glossary On
Versions: 1 2 3 4 5 6 7 8 9 10 11 12 13 14 15 16 17 18 19 20 21 22 23 24 25 26 27 28 29 30 31 32 33 34 35 36 37 38 39 40 41 42 43 44 45 46 47 48 49
000
ASUS41 KOKX 280708
RWROKX

REGIONAL WEATHER ROUNDUP
NATIONAL WEATHER SERVICE NEW YORK NY
300 AM EDT TUE APR 28 2015

NOTE: "FAIR" INDICATES FEW OR NO CLOUDS BELOW 12,000 FEET WITH NO
SIGNIFICANT WEATHER AND/OR OBSTRUCTIONS TO VISIBILITY.

NYZ071-072-176-178-NJZ106-104-280800-
NEW YORK CITY METRO AREA


CITY           SKY/WX    TMP DP  RH WIND       PRES   REMARKS
CENTRAL PARK   CLOUDY    52  37  56 VRB5      29.75S
LAGUARDIA APRT CLOUDY    51  38  60 NW12      29.72S
KENNEDY INTL   CLOUDY    53  37  54 NW20G25   29.72S
NEWARK/LIBERTY CLOUDY    52  38  58 NW14      29.73S
BRNX BOT. GARD   N/A     50  37  62 NW2       29.71S
TETERBORO      CLOUDY    51  38  60 NW14      29.72S
$$

NYZ177-179-078>081-280800-
LONG ISLAND NEW YORK

CITY           SKY/WX    TMP DP  RH WIND       PRES   REMARKS
FARMINGDALE    CLOUDY    50  40  68 NW9       29.70S
ISLIP          CLOUDY    49  41  74 NW12      29.67S
SHIRLEY        CLOUDY    50  41  71 NW10      29.68S
WESTHAMPTON    MOCLDY    49  40  71 NW10      29.68R
MONTAUK POINT    N/A     47  39  74 CALM      29.66R
$$

NYZ052-065-067-280800-
HUDSON VALLEY

CITY           SKY/WX    TMP DP  RH WIND       PRES   REMARKS
WHITE PLAINS   MOCLDY    48  39  71 NW9       29.70S
NEWBURGH       PTCLDY    50  39  66 N16       29.74S
MONTGOMERY     CLOUDY    50  38  63 NW9       29.73S
POUGHKEEPSIE   CLOUDY    51  37  58 N12G21    29.73R
ALBANY         CLOUDY    50  39  66 N13       29.76S
$$

NJZ001-105-106-008-010-013-015-019>022-104-280800-
NEW JERSEY

CITY           SKY/WX    TMP DP  RH WIND       PRES   REMARKS
NEWARK/LIBERTY CLOUDY    52  38  58 NW14      29.73S
TETERBORO      CLOUDY    51  38  60 NW14      29.72S
CALDWELL       MOCLDY    50  38  63 VRB7      29.74S
MORRISTOWN     CLOUDY    52  39  62 N12       29.74S
SOMERVILLE     MOCLDY    50  38  63 NW7       29.74S
SUSSEX         PTCLDY    48  38  68 NW6       29.77R
ANDOVER          N/A     48  39  71 N9G18     29.75F
TRENTON        CLEAR     49  36  61 NW8       29.76F
MILLVILLE      CLOUDY    51  36  56 NW10      29.79S
ATLANTIC CITY  CLOUDY    51  35  54 NW13      29.77R
WRIGHTSTOWN    PTCLDY    49  37  62 NW7       29.74S
TOMS RIVER     MOCLDY    48  36  61 NW10      29.75S
BELMAR         MOCLDY    48  34  57 NW9G16    29.73F
$$

PAZ047>061-062-071-280800-
EASTERN PENNSYLVANIA

CITY           SKY/WX    TMP DP  RH WIND       PRES   REMARKS
PHILADELPHIA   CLOUDY    52  37  56 NW12G22   29.80S
ALLENTOWN      CLOUDY    50  39  66 NW7       29.79S
SCRANTON       CLOUDY    46  40  79 NW6       29.82S
$$

CTZ002-004>006-009-010-012-RIZ004-006-007-MAZ004-011-015-280800-
SOUTHERN NEW ENGLAND
 IN CT

CITY           SKY/WX    TMP DP  RH WIND       PRES   REMARKS
BRADLEY INTL   PTCLDY    48  34  58 N8        29.67S
HARTFORD       PTCLDY    49  35  58 N7        29.68R
DANBURY        PTCLDY    47  38  71 N8G17     29.72R
WTRBRY/OXFORD  MOCLDY    46  37  71 NW5       29.70S
BRIDGEPORT     PTCLDY    49  43  80 NW13      29.69S
MERIDEN        CLOUDY    50  37  61 N6        29.68S
NEW HAVEN      CLOUDY    50  42  74 NW8       29.68S
CHESTER        CLOUDY    48  37  66 N12       29.67R
GROTON         CLOUDY    50  34  54 N13       29.64R
WILLIMANTIC    MOCLDY    49  34  56 N9G21     29.66S

 IN RI

CITY           SKY/WX    TMP DP  RH WIND       PRES   REMARKS
PROVIDENCE     LGT RAIN  43  39  86 NE17      29.67R
BLOCK ISLAND   CLOUDY    45  39  81 NE6       29.64R
WESTERLY       CLOUDY    47  40  76 CALM      29.65R

 IN MA

CITY           SKY/WX    TMP DP  RH WIND       PRES   REMARKS
BOSTON         CLOUDY    43  38  82 N12       29.67R
WORCESTER      CLOUDY    44  33  65 N14       29.64R
WESTFIELD      CLEAR     47  33  58 N8        29.68R
PROVINCETOWN   CLOUDY   N/A N/A N/A N14G22    29.63R
NANTUCKET      CLOUDY    42  37  82 N17G26    29.60R
$$

ANZ330-335-338-340-345-350-353-355-280800-
COASTAL MARINE OBSERVATIONS


STATION/POSITION TIME  SKY/WX   TEMP    WIND        PRES    VSBY  WAVE
                                AIR SEA DIR/SP/G                  HT/PER
                 (UTC)          (F)     (DEG/KT/KT) (MB)    (MI)  (FT/S)
NY HARB ENTRANCE 0650            49 47  310/ 14/ 16 1005.6          2/ 3
4S FIRE IS       0603               45                N/A           2/ 9
20S FIRE ISLAND  0650            48 44  330/ 14/ 17 1005.2          3/ 4
23SW MTP         0650            46 43   30/ 12/ 14 1003.9          2/ 4
HUDSON CANYON    NOT AVBL
EXECUTION ROCKS  NOT AVBL
WESTERN LI SOUND NOT AVBL
CENTRAL LI SOUND NOT AVBL
EASTERN LI SOUND 0600            49     350/ 12/ 17   N/A
ROBBINS REEF     0600            51     330/ 13/ 20 1005.5
$$


>>>>>>>>>>>>>>>>>>>>>>>>>>>> KEY <<<<<<<<<<<<<<<<<<<<<<<<<<<
>                                                          <
>     SKY/WX - SKY CONDITION/PRESENT WEATHER               <
>     TMP    - TEMPERATURE IN FAHRENHEIT                   <
>     DP     - DEWPOINT IN FAHRENHEIT                      <
>     RH     - RELATIVE HUMIDITY IN PERCENT                <
>     WIND   - DIRECTION AND SPEED IN MPH                  <
>     PRES   - MEAN SEA LEVEL PRESSURE IN INCHES OF HG     <
>     WCI    - WIND CHILL INDEX                            <
>     VSB    - VISIBILITY IN MILES                         <
>     HX     - HEAT INDEX                                  <
>     TC     - TEMPERATURE IN CELSIUS                      <
>     VRB    - VARIABLE WIND DIRECTION                     <
>                                                          <
>>>>>>>>>>>>>>>>>>>>>>>>>>>> KEY <<<<<<<<<<<<<<<<<<<<<<<<<<<





USA.gov is the U.S. government's official web portal to all federal, state and local government web resources and services.